Time,TemperatureF,DewpointF,PressureIn,WindDirection,WindDirectionDegrees,WindSpeedMPH,WindSpeedGustMPH,Humidity,HourlyPrecipIn,Conditions,Clouds,dailyrainin,SoftwareType,DateUTC
2013-01-25 00:00:00,11.7,5.9,30.50,NNE,21,0.0,-999.0,77,0.00,,,0.00,Wunderground v.1.15,2013-01-25 05:00:00,
2013-01-25 00:01:00,11.7,6.2,30.50,NNE,21,0.0,-999.0,78,0.00,,,0.00,Wunderground v.1.15,2013-01-25 05:01:00,
2013-01-25 00:04:00,11.7,6.2,30.50,NNE,21,0.0,-999.0,78,0.00,,,0.00,Wunderground v.1.15,2013-01-25 05:04:00,
2013-01-25 00:05:00,11.7,6.2,30.50,NNE,21,0.0,-999.0,78,0.00,,,0.00,Wunderground v.1.15,2013-01-25 05:05:00,
2013-01-25 00:11:00,11.8,6.3,30.50,NNE,21,0.0,-999.0,78,0.00,,,0.00,Wunderground v.1.15,2013-01-25 05:11:00,
2013-01-25 00:16:00,11.9,6.4,30.50,NNE,21,0.0,-999.0,78,0.00,,,0.00,Wunderground v.1.15,2013-01-25 05:16:00,
2013-01-25 00:22:00,12.0,6.5,30.50,NNE,21,0.0,-999.0,78,0.00,,,0.00,Wunderground v.1.15,2013-01-25 05:22:00,
2013-01-25 00:28:00,12.1,6.8,30.49,NNE,21,0.0,-999.0,79,0.00,,,0.00,Wunderground v.1.15,2013-01-25 05:28:00,
2013-01-25 00:34:00,12.2,6.9,30.49,NNE,21,0.0,-999.0,79,0.00,,,0.00,Wunderground v.1.15,2013-01-25 05:34:00,
2013-01-25 00:40:00,12.3,7.3,30.48,NNE,21,0.0,-999.0,80,0.00,,,0.00,Wunderground v.1.15,2013-01-25 05:40:00,
2013-01-25 00:46:00,12.4,7.1,30.48,NNE,21,0.0,-999.0,79,0.00,,,0.00,Wunderground v.1.15,2013-01-25 05:46:00,
2013-01-25 00:52:00,12.5,7.2,30.48,NNE,21,0.0,-999.0,79,0.00,,,0.00,Wunderground v.1.15,2013-01-25 05:52:00,
2013-01-25 00:58:00,12.7,7.1,30.48,NNE,21,0.0,-999.0,78,0.00,,,0.00,Wunderground v.1.15,2013-01-25 05:58:00,
2013-01-25 01:03:00,13.0,7.4,30.47,NNE,21,0.0,-999.0,78,0.00,,,0.00,Wunderground v.1.15,2013-01-25 06:03:00,
2013-01-25 01:09:00,13.4,7.2,30.47,SE,133,0.0,-999.0,76,0.00,,,0.00,Wunderground v.1.15,2013-01-25 06:09:00,
2013-01-25 01:15:00,13.7,6.9,30.46,SE,133,0.0,-999.0,74,0.00,,,0.00,Wunderground v.1.15,2013-01-25 06:15:00,
2013-01-25 01:21:00,13.9,6.8,30.46,SE,140,0.0,-999.0,73,0.00,,,0.00,Wunderground v.1.15,2013-01-25 06:21:00,
2013-01-25 01:26:00,14.0,6.9,30.47,SE,139,0.0,-999.0,73,0.00,,,0.00,Wunderground v.1.15,2013-01-25 06:26:00,
2013-01-25 01:32:00,14.1,7.0,30.47,SE,139,0.0,-999.0,73,0.00,,,0.00,Wunderground v.1.15,2013-01-25 06:32:00,
2013-01-25 01:38:00,14.2,6.8,30.47,SE,139,0.0,-999.0,72,0.00,,,0.00,Wunderground v.1.15,2013-01-25 06:38:00,
2013-01-25 01:44:00,14.2,6.5,30.47,SE,140,0.0,-999.0,71,0.00,,,0.00,Wunderground v.1.15,2013-01-25 06:44:00,
2013-01-25 01:50:00,14.3,6.6,30.46,SE,139,0.0,-999.0,71,0.00,,,0.00,Wunderground v.1.15,2013-01-25 06:50:00,
2013-01-25 01:56:00,14.3,6.6,30.46,SE,142,0.0,-999.0,71,0.00,,,0.00,Wunderground v.1.15,2013-01-25 06:56:00,
2013-01-25 02:02:00,14.3,6.6,30.46,SE,142,0.0,-999.0,71,0.00,,,0.00,Wunderground v.1.15,2013-01-25 07:02:00,
2013-01-25 02:08:00,14.3,6.6,30.45,SE,126,0.0,-999.0,71,0.00,,,0.00,Wunderground v.1.15,2013-01-25 07:08:00,
2013-01-25 02:14:00,14.3,6.6,30.45,SSE,155,0.0,-999.0,71,0.00,,,0.00,Wunderground v.1.15,2013-01-25 07:14:00,
2013-01-25 02:19:00,14.4,6.4,30.45,SSE,155,0.0,-999.0,70,0.00,,,0.00,Wunderground v.1.15,2013-01-25 07:19:00,
2013-01-25 02:25:00,14.3,6.6,30.45,SSE,155,0.0,-999.0,71,0.00,,,0.00,Wunderground v.1.15,2013-01-25 07:25:00,
2013-01-25 02:31:00,14.4,6.7,30.45,SSE,155,0.0,-999.0,71,0.00,,,0.00,Wunderground v.1.15,2013-01-25 07:31:00,
2013-01-25 02:37:00,14.4,6.7,30.46,SSE,155,0.0,-999.0,71,0.00,,,0.00,Wunderground v.1.15,2013-01-25 07:37:00,
2013-01-25 02:43:00,14.4,6.7,30.45,SSE,155,0.0,-999.0,71,0.00,,,0.00,Wunderground v.1.15,2013-01-25 07:43:00,
2013-01-25 02:49:00,14.5,6.5,30.45,SSE,155,1.0,-999.0,70,0.00,,,0.00,Wunderground v.1.15,2013-01-25 07:49:00,
2013-01-25 02:55:00,14.5,6.5,30.45,SSE,155,1.0,-999.0,70,0.00,,,0.00,Wunderground v.1.15,2013-01-25 07:55:00,
2013-01-25 03:01:00,14.5,6.5,30.44,SSE,155,0.0,-999.0,70,0.00,,,0.00,Wunderground v.1.15,2013-01-25 08:01:00,
2013-01-25 03:07:00,14.5,6.5,30.44,SSE,155,0.0,-999.0,70,0.00,,,0.00,Wunderground v.1.15,2013-01-25 08:07:00,
2013-01-25 03:12:00,14.6,6.6,30.44,SSE,155,0.0,-999.0,70,0.00,,,0.00,Wunderground v.1.15,2013-01-25 08:12:00,
2013-01-25 03:18:00,14.6,6.6,30.44,SSE,155,0.0,-999.0,70,0.00,,,0.00,Wunderground v.1.15,2013-01-25 08:18:00,
2013-01-25 03:24:00,14.7,6.7,30.44,SSE,155,0.0,-999.0,70,0.00,,,0.00,Wunderground v.1.15,2013-01-25 08:24:00,
2013-01-25 03:30:00,14.7,6.7,30.44,SSE,155,0.0,-999.0,70,0.00,,,0.00,Wunderground v.1.15,2013-01-25 08:30:00,
2013-01-25 03:35:00,14.7,6.7,30.44,SSE,155,1.0,-999.0,70,0.00,,,0.00,Wunderground v.1.15,2013-01-25 08:35:00,
2013-01-25 03:41:00,14.8,6.5,30.44,SSE,155,1.0,-999.0,69,0.00,,,0.00,Wunderground v.1.15,2013-01-25 08:41:00,
2013-01-25 03:47:00,14.8,6.5,30.43,SSE,155,1.0,-999.0,69,0.00,,,0.00,Wunderground v.1.15,2013-01-25 08:47:00,
2013-01-25 03:53:00,14.8,6.5,30.42,SSE,155,1.0,-999.0,69,0.00,,,0.00,Wunderground v.1.15,2013-01-25 08:53:00,
2013-01-25 03:59:00,14.8,6.8,30.42,SSE,155,0.0,-999.0,70,0.00,,,0.00,Wunderground v.1.15,2013-01-25 08:59:00,
2013-01-25 04:05:00,14.8,6.5,30.42,South,173,1.0,-999.0,69,0.00,,,0.00,Wunderground v.1.15,2013-01-25 09:05:00,
2013-01-25 04:11:00,14.8,6.5,30.42,SE,146,3.0,-999.0,69,0.00,,,0.00,Wunderground v.1.15,2013-01-25 09:11:00,
2013-01-25 04:16:00,14.9,6.9,30.42,SSE,162,2.0,-999.0,70,0.00,,,0.00,Wunderground v.1.15,2013-01-25 09:16:00,
2013-01-25 04:22:00,14.9,6.6,30.42,SSE,150,1.0,-999.0,69,0.00,,,0.00,Wunderground v.1.15,2013-01-25 09:22:00,
2013-01-25 04:28:00,14.9,6.9,30.42,SSE,150,1.0,-999.0,70,0.00,,,0.00,Wunderground v.1.15,2013-01-25 09:28:00,
2013-01-25 04:34:00,14.9,6.9,30.42,SSE,150,0.0,-999.0,70,0.00,,,0.00,Wunderground v.1.15,2013-01-25 09:34:00,
2013-01-25 04:40:00,14.9,6.6,30.41,SSE,149,0.0,-999.0,69,0.00,,,0.00,Wunderground v.1.15,2013-01-25 09:40:00,
2013-01-25 04:46:00,15.0,7.0,30.40,SE,136,0.0,-999.0,70,0.00,,,0.00,Wunderground v.1.15,2013-01-25 09:46:00,
2013-01-25 04:52:00,15.0,7.0,30.40,SE,136,0.0,-999.0,70,0.00,,,0.00,Wunderground v.1.15,2013-01-25 09:52:00,
2013-01-25 04:58:00,14.9,6.6,30.39,SE,136,0.0,-999.0,69,0.00,,,0.00,Wunderground v.1.15,2013-01-25 09:58:00,
2013-01-25 05:04:00,14.9,6.6,30.39,SSE,161,1.0,-999.0,69,0.00,,,0.00,Wunderground v.1.15,2013-01-25 10:04:00,
2013-01-25 05:10:00,14.9,6.6,30.40,SSE,161,2.0,-999.0,69,0.00,,,0.00,Wunderground v.1.15,2013-01-25 10:10:00,
2013-01-25 05:16:00,14.9,6.6,30.39,SSE,162,1.0,-999.0,69,0.00,,,0.00,Wunderground v.1.15,2013-01-25 10:16:00,
2013-01-25 05:22:00,14.9,6.6,30.38,SSE,162,0.0,-999.0,69,0.00,,,0.00,Wunderground v.1.15,2013-01-25 10:22:00,